Tracking 30995 objects as of 5-Jul-2025
HD Live streaming from Space Station
objects crossing your sky now

THOR ABLESTAR DEB

Track THOR ABLESTAR DEB now!
10-day predictions


NORAD ID: 3164
Int'l Code: 1961-015HZ
Perigee: 847.2 km
Apogee: 929.3 km
Inclination: 66.7 °
Period: 102.6 minutes
Semi major axis: 7259 km
RCS: 0.0289 m2 (small)
Launch date: June 29, 1961
Source: United States (US)
Launch site: AIR FORCE EASTERN TEST RANGE (AFETR)

Note: This is SATELLITE DEBRIS
Your satellite tracking list
Your tracking list is empty




NASA's NSSDC Master Catalog

Two Line Element Set (TLE):
1 03164U 61015HZ  25186.51730996  .00000651  00000-0  45782-3 0  9990
2 03164  66.7455 236.9521 0056570 288.6218  70.8729 14.03670291 39148
Source of the keplerian elements: AFSPC